Temp
-11 -11 -12 -11 -11 -12 -11 -11 -11 -11 -11 -11 -11 -11 -11 -11 -11 -11 -11 -11 -11 -11 -10 -10 -10 -10 -10 -10 -10 -10 -10 -9
-11 -11 -11 -12 -12 -12 -12 -11 -12 -12 -11 -11 -11 -11 -11 -11 -11 -11 -11 -11 -11 -11 -11 -11 -11 -10 -10 -10 -10 -10 -10 -10
-11 -11 -11 -12 -12 -12 -12 -12 -12 -12 -12 -12 -12 -12 -12 -12 -12 -12 -12 -12 -12 -12 -11 -11 -11 -11 -11 -10 -10 -10 -10 -10
-12 -12 -12 -12 -11 -11 -11 -10 -12 -12 -12 -12 -12 -12 -12 -12 -12 -12 -12 -12 -12 -12 -12 -11 -11 -11 -11 -11 -11 -10 -11 -11
-12 -12 -11 -12 -12 -12 -12 -12 -12 -12 -12 -12 -12 -12 -12 -12 -12 -12 -12 -12 -12 -12 -12 -12 -12 -11 -11 -11 -11 -11 -11 -11
-13 -12 -12 -12 -12 -12 -12 -12 -13 -12 -12 -12 -12 -12 -12 -12 -12 -12 -12 -12 -12 -12 -12 -12 -12 -11 -11 -11 -11 -11 -11 -11
-13 -13 -12 -12 -12 -12 -13 -13 -12 -12 -12 -11 -11 -12 -12 -12 -12 -12 -12 -12 -13 -12 -12 -12 -12 -12 -12 -12 -12 -12 -12 -12
-14 -14 -14 -13 -14 -13 -13 -13 -12 -13 -12 -12 -12 -12 -12 -12 -13 -13 -13 -13 -13 -13 -13 -12 -12 -12 -13 -12 -12 -12 -12 -12
-14 -14 -14 -14 -14 -13 -14 -13 -13 -12 -12 -12 -13 -13 -13 -13 -13 -13 -13 -13 -13 -13 -13 -13 -13 -13 -13 -13 -13 -13 -13 -13
-15 -14 -14 -14 -14 -14 -14 -14 -13 -13 -13 -12 -13 -13 -13 -13 -13 -13 -13 -13 -13 -13 -13 -13 -13 -14 -13 -13 -14 -14 -14 -14
-16 -15 -15 -14 -14 -14 -14 -14 -14 -13 -13 -13 -13 -13 -13 -13 -13 -13 -13 -13 -14 -14 -13 -14 -14 -14 -14 -14 -14 -14 -14 -14
-15 -15 -15 -15 -15 -15 -15 -14 -14 -14 -13 -13 -14 -13 -13 -13 -13 -13 -13 -14 -14 -14 -14 -14 -14 -14 -14 -14 -14 -14 -14 -14
-15 -15 -15 -15 -15 -15 -15 -14 -14 -14 -13 -13 -13 -13 -13 -13 -13 -13 -14 -14 -14 -14 -14 -14 -14 -14 -14 -14 -14 -14 -14 -14
-15 -16 -15 -15 -16 -16 -15 -15 -15 -14 -14 -13 -13 -13 -13 -13 -13 -13 -13 -14 -14 -15 -15 -14 -14 -15 -14 -14 -14 -15 -15 -15
-15 -16 -16 -16 -16 -16 -16 -15 -15 -15 -15 -15 -14 -13 -13 -13 -13 -13 -14 -14 -14 -14 -15 -15 -15 -15 -14 -14 -14 -15 -15 -15
-16 -16 -16 -16 -16 -17 -16 -16 -16 -16 -15 -15 -15 -14 -14 -14 -14 -14 -14 -15 -16 -15 -15 -15 -15 -15 -15 -15 -15 -15 -15 -16
-16 -17 -17 -17 -16 -16 -16 -17 -16 -16 -16 -16 -15 -16 -17 -16 -15 -15 -15 -16 -16 -16 -15 -15 -15 -15 -15 -15 -15 -15 -15 -15
-17 -17 -17 -17 -17 -17 -17 -17 -16 -16 -16 -16 -16 -16 -17 -16 -16 -16 -16 -17 -16 -15 -16 -16 -16 -15 -16 -16 -16 -16 -16 -16
-18 -18 -18 -18 -17 -18 -18 -18 -17 -17 -16 -16 -16 -17 -17 -17 -17 -16 -16 -16 -16 -16 -16 -16 -16 -16 -16 -16 -16 -16 -16 -16
Height
5816 5819 5823 5827 5831 5835 5837 5841 5844 5847 5850 5850 5851 5851 5855 5855 5856 5856 5856 5857 5858 5859 5859 5859 5859 5859 5859 5858 5857 5856 5855 5853
5809 5811 5815 5820 5823 5827 5831 5835 5838 5841 5844 5845 5846 5848 5850 5852 5852 5853 5853 5854 5854 5855 5855 5855 5854 5854 5853 5853 5852 5851 5850 5848
5803 5805 5808 5812 5814 5817 5819 5826 5829 5834 5837 5839 5841 5843 5844 5847 5847 5848 5849 5850 5851 5850 5850 5850 5849 5848 5848 5848 5847 5846 5844 5843
5796 5798 5801 5803 5804 5806 5807 5812 5816 5824 5829 5833 5835 5838 5838 5840 5842 5843 5843 5843 5845 5846 5844 5844 5844 5843 5843 5842 5841 5839 5838 5837
5788 5791 5794 5795 5796 5798 5802 5803 5812 5817 5822 5826 5829 5831 5833 5834 5836 5836 5836 5837 5838 5840 5840 5838 5838 5838 5837 5836 5834 5833 5832 5830
5779 5783 5775 5782 5789 5795 5797 5802 5807 5812 5816 5819 5822 5823 5825 5827 5829 5828 5829 5830 5831 5833 5834 5833 5831 5831 5831 5830 5828 5827 5826 5824
5771 5775 5777 5783 5786 5788 5792 5797 5801 5804 5808 5810 5813 5814 5816 5818 5819 5820 5821 5822 5823 5824 5824 5825 5824 5823 5824 5823 5822 5820 5818 5816
5758 5763 5769 5773 5777 5781 5785 5787 5790 5792 5797 5800 5802 5805 5806 5807 5810 5812 5812 5814 5815 5816 5816 5817 5817 5816 5816 5815 5814 5812 5811 5810
5746 5751 5755 5761 5766 5771 5773 5776 5781 5782 5784 5787 5790 5795 5797 5797 5800 5801 5800 5803 5806 5807 5808 5809 5808 5808 5807 5806 5806 5805 5803 5802
5734 5741 5748 5752 5756 5759 5761 5763 5766 5771 5774 5777 5780 5784 5786 5787 5788 5790 5791 5792 5796 5798 5799 5799 5799 5799 5798 5798 5797 5796 5795 5793
5724 5730 5736 5742 5747 5750 5752 5754 5757 5762 5764 5766 5769 5772 5774 5775 5777 5779 5779 5781 5784 5788 5789 5790 5790 5790 5790 5790 5789 5787 5786 5785
5712 5719 5725 5730 5734 5738 5742 5746 5751 5753 5756 5758 5761 5761 5760 5760 5764 5766 5768 5770 5774 5777 5780 5781 5782 5782 5782 5781 5780 5779 5777 5776
5702 5707 5712 5717 5721 5724 5728 5732 5739 5743 5745 5746 5748 5750 5752 5751 5752 5754 5757 5760 5764 5767 5770 5772 5773 5774 5773 5772 5771 5770 5768 5767
5692 5697 5701 5706 5711 5715 5719 5723 5726 5731 5731 5734 5737 5738 5740 5740 5741 5743 5746 5750 5753 5757 5760 5762 5763 5764 5764 5763 5763 5761 5759 5758
5681 5686 5691 5695 5700 5705 5709 5712 5716 5720 5721 5723 5725 5729 5727 5729 5731 5733 5736 5740 5743 5746 5750 5752 5754 5755 5755 5754 5754 5753 5752 5752
5670 5674 5679 5684 5689 5693 5697 5701 5704 5707 5711 5714 5718 5718 5721 5723 5723 5724 5727 5730 5734 5739 5742 5744 5745 5745 5745 5745 5745 5743 5742 5742
5660 5664 5667 5671 5676 5681 5685 5690 5693 5697 5699 5701 5704 5706 5707 5712 5715 5717 5718 5722 5726 5730 5732 5733 5734 5735 5735 5736 5736 5735 5734 5733
5645 5652 5656 5660 5664 5668 5671 5676 5681 5685 5688 5691 5693 5695 5699 5702 5705 5705 5704 5710 5715 5718 5720 5721 5722 5724 5725 5724 5724 5724 5724 5723
5630 5636 5643 5648 5652 5656 5660 5663 5667 5672 5676 5678 5681 5684 5687 5690 5693 5695 5697 5700 5704 5707 5709 5710 5711 5712 5714 5713 5713 5713 5713 5713
Wind_Speed
39 40 43 36 27 29 29 24 22 20 18 16 15 14 13 12 12 10 10 10 11 13 14 16 17 18 18 18 17 17 18 19
44 40 41 32 39 34 31 28 26 23 21 19 17 16 14 15 15 15 14 14 15 17 18 19 19 20 21 21 21 21 21 21
40 41 39 45 42 38 39 36 32 29 27 25 22 20 20 23 21 21 19 19 21 22 22 23 24 24 24 24 24 23 23 22
40 44 41 47 40 27 32 35 42 34 32 30 27 25 25 26 25 23 22 21 22 24 23 23 24 24 25 25 25 25 24 23
43 51 48 47 35 36 41 27 35 33 39 36 33 30 30 30 28 27 27 26 27 27 26 24 25 26 26 26 26 26 26 24
44 42 41 40 40 38 36 36 36 40 40 35 34 34 36 36 35 36 36 29 28 29 28 26 26 28 28 28 27 26 26 25
44 46 48 47 44 42 41 42 44 42 40 38 37 37 38 40 41 39 35 33 30 28 28 29 30 28 29 28 29 28 27 27
49 46 47 47 45 46 43 46 43 44 43 38 40 39 42 44 44 41 39 36 35 33 34 32 29 28 30 31 28 27 28 28
59 55 50 50 48 47 46 46 45 47 49 46 43 43 44 47 44 42 42 37 38 35 32 30 30 31 27 29 28 31 30 32
51 47 48 58 56 52 51 52 53 53 51 50 47 46 48 48 46 46 46 41 41 38 33 31 32 32 32 36 35 34 34 33
53 51 48 45 47 53 53 51 51 49 52 52 54 53 53 53 51 50 52 48 40 37 35 33 33 33 34 35 34 33 36 37
46 48 47 50 49 46 48 51 51 48 51 52 51 51 53 58 57 58 53 43 42 43 37 35 35 33 32 33 36 38 39 37
38 42 44 47 48 46 45 46 48 49 50 54 56 62 49 52 54 54 49 44 42 37 38 38 37 36 36 36 38 40 40 36
34 34 38 40 43 44 43 45 47 47 50 53 52 50 54 48 45 47 51 42 40 38 40 41 44 42 41 38 38 37 36 34
38 37 35 38 40 45 48 50 50 48 47 47 45 55 40 42 39 41 40 40 38 40 43 45 44 44 43 43 41 36 34 35
41 39 38 40 39 41 43 46 48 49 51 50 49 47 51 50 46 45 46 38 33 35 40 44 46 46 45 44 39 38 36 35
44 43 42 39 38 40 43 45 49 48 50 50 50 50 49 43 45 39 39 31 33 41 49 51 47 46 44 44 45 45 43 38
51 47 46 46 45 41 42 42 44 47 48 52 54 53 53 56 60 64 64 53 44 49 49 53 51 52 49 44 44 45 42 36
55 54 51 48 48 47 44 45 44 44 47 50 50 50 51 53 52 53 54 56 52 56 50 50 48 56 50 45 44 42 38 34
Wind_Direction
225 220 216 219 214 223 213 217 223 220 219 223 226 231 240 246 252 252 254 265 274 279 283 287 290 294 297 299 299 300 295 290
224 226 227 228 215 216 236 220 223 226 223 219 224 230 242 252 256 263 264 270 277 280 282 284 287 291 294 295 296 296 292 289
219 224 233 224 229 215 213 222 225 226 227 227 230 242 249 254 256 259 264 272 278 279 279 281 284 287 289 290 292 292 290 288
219 222 230 232 244 237 238 219 226 217 231 235 238 242 246 249 253 257 262 268 274 278 279 282 284 285 286 289 290 289 288 288
217 226 233 233 229 230 238 221 230 234 237 237 241 245 250 253 254 257 261 267 272 278 282 283 285 286 286 287 288 288 287 288
219 222 224 223 233 234 245 242 245 249 248 242 241 243 248 254 257 259 258 259 265 271 281 285 285 286 287 287 287 286 287 284
219 222 230 233 234 240 241 243 247 248 249 247 249 246 248 251 254 255 261 256 259 265 273 282 285 286 286 285 284 283 281 280
212 218 226 230 236 239 242 240 248 241 243 241 244 244 246 249 252 256 256 255 258 266 268 273 274 284 288 283 278 279 281 282
223 222 224 226 226 231 236 237 238 242 247 244 241 239 244 248 248 250 252 248 257 262 267 266 270 279 286 276 280 283 283 280
242 243 234 233 232 232 235 237 237 240 242 245 243 242 243 245 246 247 251 252 256 262 260 260 268 277 278 281 280 277 278 283
238 241 245 242 236 236 239 238 239 242 245 246 249 246 241 243 244 244 247 252 253 254 254 258 263 272 280 280 278 277 274 282
238 239 239 243 245 245 245 243 243 244 244 248 247 243 243 240 240 244 248 255 254 249 251 258 262 270 275 277 278 277 279 284
240 241 237 235 238 236 236 241 241 242 245 244 245 248 243 249 248 248 243 246 252 244 250 257 263 269 273 278 282 281 280 278
240 240 241 237 233 234 231 232 233 238 243 236 239 238 243 243 243 250 244 245 243 245 250 256 262 268 270 276 283 285 277 273
244 241 242 244 240 234 238 245 246 246 246 255 250 240 242 245 243 244 244 242 245 250 254 259 264 268 269 273 278 285 279 277
244 246 244 240 241 243 242 238 245 252 251 253 255 236 242 249 248 250 252 245 253 263 269 268 265 266 271 269 274 280 276 274
239 239 244 247 247 243 241 241 245 249 250 254 259 264 270 267 259 251 249 249 278 276 275 272 265 266 269 271 275 279 275 271
247 244 242 242 245 248 249 245 243 245 248 249 251 257 263 264 262 264 273 284 279 273 272 267 265 268 269 272 274 273 268 270
250 250 246 244 244 244 246 250 246 244 246 248 249 250 255 260 261 264 269 270 268 271 271 270 278 271 267 269 267 262 261 269